Gulf Shores - Orange Beach - Perdido Key Weather Center

Moon Phase Calendar



Online Cameras

 


      

Current Conditions in Orange Beach
5/26/2022 5:08:37 AM

75°F
Feels Like 75
Mist
Humidity
74%
Pressure
29.91"
Wind
12 mph (ESE)
Dew Point
66°F
UV Index
0/10 (Low)
Visibility
4 mi

Hourly Forecast

Date & Time Thu, May 26
5:00 AM
Thu, May 26
6:00 AM
Thu, May 26
7:00 AM
Thu, May 26
8:00 AM
Thu, May 26
9:00 AM
Thu, May 26
10:00 AM
Thu, May 26
11:00 AM
Thu, May 26
12:00 PM
Thu, May 26
1:00 PM
Thu, May 26
2:00 PM
Thu, May 26
3:00 PM
Thu, May 26
4:00 PM
Thu, May 26
5:00 PM
Thu, May 26
6:00 PM
Thu, May 26
7:00 PM
Thu, May 26
8:00 PM
Thu, May 26
9:00 PM
Thu, May 26
10:00 PM
Thu, May 26
11:00 PM
Fri, May 27
12:00 AM
Fri, May 27
1:00 AM
Fri, May 27
2:00 AM
Fri, May 27
3:00 AM
Fri, May 27
4:00 AM
Fri, May 27
5:00 AM
Fri, May 27
6:00 AM
Fri, May 27
7:00 AM
Fri, May 27
8:00 AM
Fri, May 27
9:00 AM
Fri, May 27
10:00 AM
Fri, May 27
11:00 AM
Fri, May 27
12:00 PM
Fri, May 27
1:00 PM
Fri, May 27
2:00 PM
Fri, May 27
3:00 PM
Fri, May 27
4:00 PM
Fri, May 27
5:00 PM
Fri, May 27
6:00 PM
Fri, May 27
7:00 PM
Fri, May 27
8:00 PM
Fri, May 27
9:00 PM
Fri, May 27
10:00 PM
Fri, May 27
11:00 PM
Sat, May 28
12:00 AM
Sat, May 28
1:00 AM
Sat, May 28
2:00 AM
Sat, May 28
3:00 AM
Sat, May 28
4:00 AM
Condition
Rain

Clouds

Rain

Rain

Rain

Rain

Rain

Rain

Rain

Rain

Rain

Rain

Clouds

Clouds

Clouds

Clear

Clear

Clear

Clear

Clear

Clear

Clear

Clear

Clear

Clear

Clear

Clear

Clear

Clear

Clear

Clear

Clear

Clear

Clear

Clear

Clear

Clear

Clear

Clear

Clear

Clear

Clear

Clear

Clear

Clear

Clear

Clear

Clear
Temperature 75°F75°F76°F77°F79°F80°F80°F80°F80°F78°F76°F76°F78°F79°F78°F77°F77°F77°F76°F76°F76°F76°F76°F76°F76°F76°F75°F75°F77°F79°F80°F81°F82°F82°F82°F82°F82°F81°F80°F78°F78°F77°F76°F73°F72°F71°F70°F69°F
Feels Like 75°F76°F77°F78°F80°F80°F84°F80°F80°F79°F77°F78°F79°F79°F79°F78°F77°F77°F77°F77°F77°F77°F77°F77°F77°F76°F76°F75°F77°F79°F81°F82°F83°F83°F83°F83°F84°F83°F80°F79°F78°F78°F76°F73°F72°F71°F70°F69°F
Cloudiness 75%80%84%41%29%40%43%38%35%64%80%87%86%70%58%0%0%0%0%0%0%0%0%0%0%0%0%0%0%0%0%0%0%0%0%0%0%1%2%10%6%4%3%2%2%0%0%0%
Visibility 6 mi6 mi6 mi6 mi6 mi6 mi6 mi6 mi6 mi6 mi6 mi6 mi6 mi6 mi6 mi6 mi6 mi6 mi6 mi6 mi6 mi6 mi6 mi6 mi6 mi6 mi6 mi6 mi6 mi6 mi6 mi6 mi6 mi6 mi6 mi6 mi6 mi6 mi6 mi6 mi6 mi6 mi6 mi6 mi6 mi6 mi6 mi6 mi
Precipitation 100%80%100%100%100%100%100%100%100%97%97%97%76%75%89%11%5%5%2%2%2%0%0%0%0%0%0%0%0%0%0%0%0%0%0%0%0%0%0%0%0%0%0%0%0%3%0%0%
Humidity 74%76%78%79%80%79%76%75%75%80%84%81%73%68%69%69%68%67%66%66%67%67%69%69%69%71%72%67%60%57%55%53%52%52%53%54%56%59%65%68%68%68%67%65%63%65%68%70%
Dew Point 66°F67°F69°F70°F72°F73°F72°F71°F71°F71°F71°F70°F68°F67°F67°F66°F65°F65°F64°F64°F65°F65°F65°F65°F65°F65°F65°F63°F62°F62°F62°F62°F62°F62°F62°F63°F64°F66°F67°F67°F67°F66°F64°F61°F59°F59°F59°F59°F
Pressure 29.91"29.91"29.91"29.94"29.97"29.97"29.97"29.94"29.94"29.94"29.91"29.91"29.91"29.91"29.91"29.91"29.94"29.94"29.94"29.94"29.94"29.91"29.91"29.91"29.91"29.94"29.94"29.97"29.97"29.97"29.97"29.97"29.94"29.94"29.91"29.91"29.88"29.88"29.91"29.91"29.91"29.94"29.94"29.91"29.91"29.91"29.91"29.91"
Wind Speed 17.6 mph16.9 mph17 mph17.3 mph17.3 mph17.9 mph18.4 mph18 mph17.4 mph14.7 mph11.5 mph8.5 mph6.5 mph5.6 mph6 mph6.5 mph5.8 mph5.9 mph6.2 mph7 mph7.5 mph7.6 mph8.7 mph9.5 mph10.4 mph11 mph11.2 mph12.4 mph12.1 mph12.8 mph13.3 mph13.4 mph12.9 mph12.9 mph13.3 mph12.2 mph11.1 mph9.9 mph8.5 mph8.7 mph8.7 mph6.2 mph5.9 mph9 mph9 mph8.6 mph8.5 mph8.6 mph
Wind
Direction
190°
S
191°
S
191°
S
198°
SSW
205°
SSW
206°
SSW
210°
SSW
222°
SW
235°
SW
246°
WSW
260°
W
266°
W
262°
W
251°
WSW
240°
WSW
243°
WSW
241°
WSW
241°
WSW
233°
SW
225°
SW
224°
SW
232°
SW
243°
WSW
245°
WSW
257°
WSW
276°
W
293°
WNW
299°
WNW
284°
WNW
273°
W
270°
W
270°
W
266°
W
258°
WSW
250°
WSW
245°
WSW
244°
WSW
246°
WSW
248°
WSW
241°
WSW
242°
WSW
266°
W
329°
NNW

N
14°
NNE
11°
N
12°
NNE
16°
NNE

Daily Forecast

Date High Low Precip. Humidity
Today
May 26

Rain
80 °F
75 °F
100%
75%
Friday
May 27

Clear
82 °F
75 °F
2%
53%
Saturday
May 28

Clear
80 °F
69 °F
0%
50%
Sunday
May 29

Clear
82 °F
74 °F
0%
52%
Monday
May 30

Clear
82 °F
76 °F
0%
59%
Tuesday
May 31

Clear
84 °F
77 °F
18%
62%
Wednesday
Jun 1

Rain
87 °F
76 °F
53%
53%
Thursday
Jun 2

Clouds
83 °F
75 °F
19%
63%
Friday
Jun 3

Rain
84 °F
75 °F
88%
59%
Saturday
Jun 4

Rain
82 °F
73 °F
87%
64%
Sunday
Jun 5

Rain
84 °F
78 °F
24%
65%
Monday
Jun 6

Clear
83 °F
77 °F
0%
58%
Tuesday
Jun 7

Clouds
84 °F
78 °F
3%
68%
Wednesday
Jun 8

Rain
84 °F
79 °F
31%
70%
Thursday
Jun 9

Rain
85 °F
79 °F
83%
66%
Friday
Jun 10

Rain
85 °F
80 °F
100%
64%

Temperature 8-14 Day Outlook



Precipitation 8-14 Day Outlook




Quick Links
Gulf Shores - Orange Beach - Perdido Key News
Gulf Shores - Orange Beach - Perdido Key Photos
Gulf Shores - Orange Beach - Perdido Key Videos




About Us
Contact Us
Site Map
Search Site
Advertise With Us
   
GulfShores.USGulf.info
THE GULF SHORES - ORANGE BEACH - PERDIDO KEY WEBSITE

Copyright 2022, Coastal Town
Privacy    |    Legal